FW1286 Weather Reports


Display with metric or nautical units.
time (UTC)temp
F
wind
direction
speed
MPH
gust
MPH
rain 1hr
in
rain 24hr
in
rain mn
in
humidity
%
barometer
mb
20211024000420 79 129 2.0 7.0 0.00 0.00 0.00 68 1008.3
20211023235345 80 125 2.0 9.0 0.00 0.00 0.00 66 1008.3
20211023234403 81 148 3.0 9.0 0.00 0.00 0.00 65 1008.3
20211023233339 82 134 3.0 8.0 0.00 0.00 0.00 64 1008.4
20211023232350 82 138 4.0 10.0 0.00 0.00 0.00 63 1008.4
20211023231321 83 153 4.0 10.0 0.00 0.00 0.00 61 1008.3
20211023230258 83 142 5.0 12.0 0.00 0.00 0.00 61 1008.4
20211023225219 83 132 6.0 13.0 0.00 0.00 0.00 61 1008.5
20211023224213 83 142 6.0 14.0 0.00 0.00 0.00 62 1008.4
20211023223211 84 180 7.0 14.0 0.00 0.00 0.00 59 1008.3
20211023222156 84 119 6.0 15.0 0.00 0.00 0.00 59 1008.4
20211023221132 84 111 7.0 15.0 0.00 0.00 0.00 59 1008.5
20211023220119 85 151 6.0 17.0 0.00 0.00 0.00 60 1008.5
20211023215118 85 148 8.0 17.0 0.00 0.00 0.00 60 1008.4
20211023214053 85 178 7.0 15.0 0.00 0.00 0.00 59 1008.4
20211023213108 85 117 7.0 13.0 0.00 0.00 0.00 61 1008.4
20211023212053 85 147 7.0 13.0 0.00 0.00 0.00 59 1008.6
20211023211018 85 171 6.0 17.0 0.00 0.00 0.00 60 1008.6
20211023210038 85 111 7.0 17.0 0.00 0.00 0.00 62 1008.7
20211023205026 84 133 7.0 15.0 0.00 0.00 0.00 61 1008.9
20211023204025 85 100 7.0 14.0 0.00 0.00 0.00 61 1009.0
20211023203006 85 128 6.0 14.0 0.00 0.00 0.00 62 1009.1
20211023202015 84 173 5.0 13.0 0.00 0.00 0.00 64 1009.3
20211023201006 84 135 6.0 12.0 0.00 0.00 0.00 62 1009.4
20211023200014 85 117 5.0 14.0 0.00 0.00 0.00 62 1009.3
20211023194952 85 141 5.0 14.0 0.00 0.00 0.00 62 1009.7
20211023194002 84 144 5.0 13.0 0.00 0.00 0.00 64 1009.8
20211023192925 85 114 6.0 12.0 0.00 0.00 0.00 63 1010.1
20211023191901 84 151 6.0 11.0 0.00 0.00 0.00 64 1010.2
20211023190831 84 153 6.0 12.0 0.00 0.00 0.00 64 1010.3
20211023185834 84 175 6.0 14.0 0.00 0.00 0.00 62 1010.3
20211023184833 84 174 6.0 14.0 0.00 0.00 0.00 64 1010.5
20211023183814 83 184 6.0 14.0 0.00 0.00 0.00 67 1010.9
20211023182747 83 134 6.0 17.0 0.00 0.00 0.00 67 1011.2
20211023181748 82 184 8.0 17.0 0.00 0.00 0.00 67 1011.5
20211023180713 81 182 8.0 15.0 0.00 0.00 0.00 68 1011.8
20211023175644 82 200 7.0 14.0 0.00 0.00 0.00 67 1011.9
20211023174656 83 130 8.0 20.0 0.00 0.00 0.00 67 1012.1
20211023173625 82 147 7.0 20.0 0.00 0.00 0.00 68 1012.1
20211023172620 81 167 7.0 17.0 0.00 0.00 0.00 70 1012.2
20211023171633 81 148 8.0 17.0 0.00 0.00 0.00 70 1012.4
20211023170615 81 164 7.0 17.0 0.00 0.00 0.00 69 1012.6
20211023165539 80 123 8.0 17.0 0.00 0.00 0.00 72 1012.6
20211023164545 80 200 6.0 15.0 0.00 0.00 0.00 73 1012.9
20211023163514 79 138 6.0 14.0 0.00 0.00 0.00 74 1013.1
20211023162511 77 168 7.0 13.0 0.00 0.00 0.00 77 1013.2
20211023161526 77 181 8.0 13.0 0.00 0.00 0.00 80 1013.3
20211023160500 76 155 7.0 15.0 0.00 0.00 0.00 80 1013.5
20211023155436 76 171 6.0 15.0 0.00 0.00 0.00 82 1013.6
20211023154440 75 169 6.0 13.0 0.00 0.00 0.00 83 1013.6
20211023153358 75 173 6.0 14.0 0.00 0.00 0.00 84 1013.7
20211023152408 76 157 7.0 14.0 0.00 0.00 0.00 83 1013.7
20211023151339 75 150 6.0 12.0 0.00 0.00 0.00 86 1013.7
20211023150325 74 139 5.0 12.0 0.00 0.00 0.00 88 1013.4
20211023145305 73 142 4.0 11.0 0.00 0.00 0.00 89 1013.5
20211023144316 73 138 6.0 11.0 0.00 0.00 0.00 90 1013.4
20211023143311 72 130 3.0 9.0 0.00 0.00 0.00 92 1013.3
20211023142248 72 172 2.0 9.0 0.00 0.00 0.00 93 1013.3
20211023141205 71 133 3.0 8.0 0.00 0.00 0.00 93 1013.3
20211023140208 71 124 3.0 9.0 0.00 0.00 0.00 94 1013.3
20211023135212 71 152 3.0 9.0 0.00 0.00 0.00 94 1013.2
20211023134207 70 150 3.0 8.0 0.00 0.00 0.00 95 1013.1
20211023133204 70 137 3.0 8.0 0.00 0.00 0.00 95 1013.0
20211023132134 70 130 2.0 6.0 0.00 0.00 0.00 96 1012.8
20211023131119 69 132 2.0 6.0 0.00 0.00 0.00 95 1012.7
20211023130042 69 136 2.0 6.0 0.00 0.00 0.00 95 1012.6
20211023125057 69 111 3.0 6.0 0.00 0.00 0.00 95 1012.5
20211023124025 69 128 1.0 5.0 0.00 0.00 0.00 95 1012.4
20211023122947 69 130 1.0 4.0 0.00 0.00 0.00 95 1012.3
20211023121922 69 124 0.0 5.0 0.00 0.00 0.00 95 1012.1
20211023120931 69 131 0.0 5.0 0.00 0.00 0.00 95 1012.1
20211023115915 69 123 0.0 4.0 0.00 0.00 0.00 95 1012.3
20211023114908 69 126 1.0 4.0 0.00 0.00 0.00 94 1012.2
20211023113830 70 142 0.0 4.0 0.00 0.00 0.00 94 1012.2
20211023112834 70 162 0.0 5.0 0.00 0.00 0.00 94 1012.2
20211023111820 70 141 1.0 5.0 0.00 0.00 0.00 94 1012.2
20211023110814 70 140 2.0 8.0 0.00 0.00 0.00 94 1012.2
20211023105756 70 123 2.0 8.0 0.00 0.00 0.00 94 1012.1
20211023104817 70 125 2.0 5.0 0.00 0.00 0.00 94 1012.1
20211023103829 70 132 1.0 7.0 0.00 0.00 0.00 94 1012.1
20211023102835 70 148 1.0 7.0 0.00 0.00 0.00 93 1012.0
20211023101821 70 125 1.0 5.0 0.00 0.00 0.00 93 1012.2
20211023100825 70 146 1.0 7.0 0.00 0.00 0.00 93 1012.3
20211023095803 70 157 2.0 7.0 0.00 0.00 0.00 93 1012.5
20211023094801 70 151 1.0 5.0 0.00 0.00 0.00 93 1012.5
20211023093752 70 153 2.0 8.0 0.00 0.00 0.00 93 1012.7
20211023092804 70 164 4.0 11.0 0.00 0.00 0.00 93 1012.7
20211023091805 70 154 5.0 11.0 0.00 0.00 0.00 93 1012.8
20211023090733 70 147 5.0 11.0 0.00 0.00 0.00 93 1012.8
20211023085723 70 133 4.0 10.0 0.00 0.00 0.00 93 1013.0
20211023084711 70 148 5.0 10.0 0.00 0.00 0.00 93 1013.1
20211023083636 70 153 4.0 11.0 0.00 0.00 0.00 93 1013.2
20211023082643 69 154 5.0 11.0 0.00 0.00 0.00 93 1013.1
20211023081614 69 166 3.0 9.0 0.00 0.00 0.00 93 1013.1
20211023080543 68 137 2.0 8.0 0.00 0.00 0.00 92 1013.2
20211023075538 68 134 2.0 8.0 0.00 0.00 0.00 92 1013.4
20211023074549 68 142 3.0 8.0 0.00 0.00 0.00 92 1013.3
20211023073515 68 127 2.0 7.0 0.00 0.00 0.00 91 1013.3
20211023072443 68 136 2.0 6.0 0.00 0.00 0.00 90 1013.3
20211023071437 68 138 2.0 8.0 0.00 0.00 0.00 89 1013.4
20211023070431 68 121 3.0 8.0 0.00 0.00 0.00 89 1013.4
20211023065452 68 139 3.0 7.0 0.00 0.00 0.00 88 1013.6
20211023064419 68 139 3.0 7.0 0.00 0.00 0.00 87 1013.6
20211023063431 68 142 3.0 6.0 0.00 0.00 0.00 87 1013.6
20211023062348 68 105 2.0 6.0 0.00 0.00 0.00 86 1013.7
20211023061351 69 157 2.0 6.0 0.00 0.00 0.00 86 1013.8
20211023060329 69 157 2.0 5.0 0.00 0.00 0.00 85 1013.9
20211023055310 69 146 1.0 8.0 0.00 0.00 0.00 85 1013.8
20211023054238 69 136 2.0 8.0 0.00 0.00 0.00 86 1013.9
20211023053221 68 132 2.0 6.0 0.00 0.00 0.00 87 1013.9
20211023052217 67 106 0.0 4.0 0.00 0.00 0.00 87 1014.0
20211023051138 68 134 0.0 3.0 0.00 0.00 0.00 86 1014.0
20211023050126 68 117 0.0 4.0 0.00 0.00 0.00 86 1014.1
20211023045139 68 117 0.0 1.0 0.00 0.00 0.00 86 1014.2
20211023044111 68 107 0.0 0.0 0.00 0.00 0.00 85 1014.2
20211023043106 68 107 0.0 2.0 0.00 0.00 0.00 84 1014.2
20211023042044 69 107 0.0 3.0 0.00 0.00 0.00 84 1014.2
20211023041056 69 107 1.0 4.0 0.00 0.00 0.00 83 1014.3
20211023040102 69 113 0.0 4.0 0.00 0.00 0.00 83 1014.3
20211023035116 69 115 0.0 2.0 0.00 0.00 0.00 83 1014.4
20211023034102 69 115 0.0 1.0 0.00 0.00 0.00 82 1014.4
20211023033109 70 115 0.0 1.0 0.00 0.00 0.00 82 1014.3
20211023032028 70 115 0.0 3.0 0.00 0.00 0.00 81 1014.4
20211023030955 71 115 0.0 3.0 0.00 0.00 0.00 81 1014.4
20211023025951 71 115 0.0 4.0 0.00 0.00 0.00 81 1014.4
20211023025003 71 115 1.0 4.0 0.00 0.00 0.00 81 1014.4
20211023024012 71 105 1.0 4.0 0.00 0.00 0.00 81 1014.4
20211023023026 71 105 0.0 4.0 0.00 0.00 0.00 80 1014.4
20211023022030 71 105 0.0 4.0 0.00 0.00 0.00 80 1014.4
20211023021023 72 105 0.0 0.0 0.00 0.00 0.00 79 1014.4
20211023020003 72 105 0.0 1.0 0.00 0.00 0.00 78 1014.4
20211023014920 73 121 1.0 4.0 0.00 0.00 0.00 78 1014.4
20211023013933 73 115 1.0 4.0 0.00 0.00 0.00 77 1014.3
20211023012928 73 111 1.0 4.0 0.00 0.00 0.00 77 1014.2
20211023011940 74 96 1.0 4.0 0.00 0.00 0.00 76 1014.2
20211023010928 74 102 1.0 5.0 0.00 0.00 0.00 75 1014.2
20211023005947 74 105 1.0 5.0 0.00 0.00 0.00 75 1014.0
20211023004920 75 110 1.0 5.0 0.00 0.00 0.00 74 1014.1
20211023003923 75 100 1.0 6.0 0.00 0.00 0.00 74 1014.0
20211023002858 75 94 1.0 6.0 0.00 0.00 0.00 73 1014.1
20211023001822 76 104 1.0 4.0 0.00 0.00 0.00 72 1014.0
20211023000824 77 105 0.0 4.0 0.00 0.00 0.00 71 1014.0